Regional Weather Roundup
Issued by NWS

Home | Current Version | Previous Version | Graphics & Text | Print | Product List | Glossary Off
Versions: 1 2 3 4 5 6 7 8 9 10 11 12 13 14 15 16 17 18 19 20 21 22 23 24 25 26 27 28 29 30 31 32 33 34 35 36 37 38 39 40 41 42 43 44 45 46 47 48 49 50

000
ASUS43 KMKX 172200
RWRWI

WISCONSIN REGIONAL WEATHER ROUNDUP
NATIONAL WEATHER SERVICE MILWAUKEE/SULLIVAN WI
500 PM CDT WED SEP 17 2014

NOTE: "FAIR" INDICATES FEW OR NO CLOUDS BELOW 12,000 FEET WITH NO
SIGNIFICANT WEATHER AND/OR OBSTRUCTIONS TO VISIBILITY.

WIZ001-002-006>008-014>016-023>028-172300-
NORTHWEST WISCONSIN

CITY           SKY/WX    TMP DP  RH WIND       PRES   REMARKS
SUPERIOR ARPT  CLOUDY    49  45  85 NE14G23   30.04R
ASHLAND        CLOUDY    48  44  86 NE9       30.06R
HAYWARD        SUNNY     59  49  69 N16G22    29.99R
SIREN          MOSUNNY   71  47  41 CALM      29.96R
RICE LAKE      SUNNY     71  48  44 CALM      29.97S
LADYSMITH      MOSUNNY   67  54  63 CALM      29.97S
EAU CLAIRE     NOT AVBL
MENOMONIE      PTCLDY    73  50  44 SW3       29.95S
NEW RICHMOND   PTSUNNY   72  50  44 SW5       29.96S
OSCEOLA        SUNNY     71  51  49 CALM      29.98S
$$

WIZ003>005-009-010-017-018-172300-
NORTH CENTRAL WISCONSIN

CITY           SKY/WX    TMP DP  RH WIND       PRES   REMARKS
WOODRUFF       PTSUNNY   65  50  58 N10G21    29.96R
RHINELANDER    MOSUNNY   65  47  52 NW3       29.96S
EAGLE RIVER    MOSUNNY   63  48  58 N12G17    29.96R
LAND O LAKES   PTSUNNY   59  47  64 N10       29.99R
PHILLIPS       MOSUNNY   68  48  49 CALM      29.95R
TOMAHAWK       SUNNY     68  47  46 CALM      29.96R
MEDFORD        SUNNY     67  49  51 SW3       29.96S
MERRILL        CLOUDY    68  49  49 W3        29.95S
$$

WIZ029-030-035-036-043>047-172300-
CENTRAL WISCONSIN

CITY           SKY/WX    TMP DP  RH WIND       PRES   REMARKS
WAUSAU         SUNNY     66  50  56 W3        29.95S
MOSINEE        PTSUNNY   70  52  52 W9        29.97S
MARSHFIELD     SUNNY     69  51  52 W6        29.96S
STEVENS POINT  SUNNY     68  47  47 W6        29.96F
WAUPACA        SUNNY     72  46  39 W7        29.96S
WAUTOMA        NOT AVBL
WISC RAPIDS    MOSUNNY   68  49  50 W5        29.98S
CAMP DOUGLAS   NOT AVBL
$$

WIZ011>013-019>022-031-037>040-048>050-172300-
NORTHEAST WISCONSIN

CITY           SKY/WX    TMP DP  RH WIND       PRES   REMARKS
ANTIGO         SUNNY     67  47  49 NW3       29.95F
STURGEON BAY   SUNNY     68  48  49 W8        29.94F
GREEN BAY      MOSUNNY   68  52  56 CALM      29.95R
MANITOWOC      NOT AVBL
APPLETON       PTSUNNY   70  46  43 W8        29.96S
CLINTONVILLE   PTSUNNY   70  46  43 W8        29.94S
OSHKOSH        MOSUNNY   66  50  56 SW5       29.96S
$$

WIZ032>034-041-042-053>061-172300-
SOUTHWEST WISCONSIN

CITY           SKY/WX    TMP DP  RH WIND       PRES   REMARKS
LA CROSSE      CLOUDY    70  52  52 SE6       29.96R
SPARTA         CLOUDY    69  49  48 SW3       29.97S
VIROQUA        FAIR      68  46  45 SW5       29.98R
BOSCOBEL       MOSUNNY   72  47  40 S3        29.96S
PRAIRIE DU CHI MOSUNNY   70  49  47 S3        29.96S
PLATTEVILLE    FAIR      69  50  51 W6        29.98S
$$

WIZ056-057-062-063-064-067-068-172300-
SOUTH CENTRAL WISCONSIN

CITY           SKY/WX    TMP DP  RH WIND       PRES   REMARKS
BARABOO/DELLS  MOSUNNY   69  46  43 W5        29.97S
LONE ROCK      NOT AVBL
WATERTOWN      PTSUNNY   68  48  48 CALM      29.97S
MADISON        MOSUNNY   70  47  43 SW3       29.97F
MIDDLETON      FAIR      70  48  45 W6        29.98S
MONROE         PTSUNNY   68  50  52 SW8       29.97F
JANESVILLE     MOSUNNY   70  46  43 W3        29.96F
$$

WIZ051-052-058>065-066-070>072-172300-
SOUTHEAST WISCONSIN

CITY           SKY/WX    TMP DP  RH WIND       PRES   REMARKS
MILWAUKEE      MOSUNNY   64  48  56 SE12      29.97F
WAUKESHA       MOSUNNY   66  45  45 NW5       29.98F
MILWAUKEE/TIMM MOSUNNY   66  46  48 SE7       29.98S
RACINE         SUNNY     64  48  56 SE12      30.00S
BURLINGTON     MOSUNNY   66  46  48 SW5       29.98S
KENOSHA        PTSUNNY   65  50  58 SE12      29.98F
FOND DU LAC    PTSUNNY   69  49  48 SW7       29.97S
SHEBOYGAN      MOSUNNY   68  48  48 W6        29.97S
WEST BEND      SUNNY     66  43  42 CALM      29.98S
JUNEAU         PTSUNNY   67  47  48 CALM      29.98S
$$

LSZ147-162-172300-
LAKE SUPERIOR

STATION/POSITION TIME  TEMP    WIND        PRES    WAVE
                       AIR SEA DIR/SP/G            HT/PER
                 (UTC) (F)     (DEG/KT/KT) (MB)    (FT/S)
W MID LAKE BUOY  2050   44 47   70/ 17/ 21 1018.2R   5/ 6
DEVILS ISLAND    2100   45      70/ 21/ 24 1018.6R
PORT WING        2100   51      40/ 20/ 25 1017.3R
SAXON HARBOR     2100   49      40/ 16/ 20 1017.3
$$

LMZ867-665-643>646-172300-
LAKE MICHIGAN

STATION/POSITION TIME  TEMP    WIND        PRES    WAVE
                       AIR SEA DIR/SP/G            HT/PER
                 (UTC) (F)     (DEG/KT/KT) (MB)    (FT/S)
N MID LAKE BUOY  2050   59 59  220/ 14/ 16 1013.7R   2/ 3
NORTHPORT PIER   2100   64     160/  7/ 11 1013.5R
SISTER BAY       2112          280/  5/  6   N/A
KEWAUNEE LAKESHO 2100   61     270/  4/  9 1013.2F
SHEBOYGAN LAKESH 2100   58 48  170/ 12/ 13 1015.3S
PORT WASHINGTON  2100   63     190/  7/  9 1015.9S
ATWATER BUOY     2100   61     150/ 10/ 12 1016.3R
MILWAUKEE LAKESH 2100   60     140/ 11/ 13   N/A
S MID LAKE BUOY  2050   62 65  190/  4/  4 1016.2F   1/ 4
KENOSHA   LAKESH 2100   63     160/ 12/ 12 1014.9F
$$

TC  - TEMPERATURE IN CELSIUS
VSB - VISIBILITY IN STATUTE MILES
WCI - WIND CHILL INDEX
HX  - HEAT INDEX




USA.gov is the U.S. government's official web portal to all federal, state and local government web resources and services.